Wink, TX

3:42 AM CDT on August 25, 2016 (GMT -0500)
Winkler County

Weather History for KINK - September, 2011

Change the Weather History Date:

Friday, September 2, 2011

  Actual Average Record
Temperature  
Mean Temperature 84 °F -  
Max Temperature 98 °F 91 °F 105 °F (2014)
Min Temperature 71 °F 66 °F 54 °F (1955)
Cooling Degree Days 20    
Growing Degree Days 34 (Base 50)    
Moisture  
Dew Point 53 °F    
Average Humidity 35    
Maximum Humidity 55    
Minimum Humidity 21    
Precipitation  
Precipitation 0.00 in - - ()
Sea Level Pressure  
Sea Level Pressure 29.83 in    
Wind  
Wind Speed 8 mph (ESE)    
Max Wind Speed 14 mph    
Max Gust Speed 20 mph    
Visibility 10 miles    
Events      
Averages and records for this station are not official NWS values.
T = Trace of Precipitation, MM = Missing Value Source: NWS Daily Summary

Daily Weather History Graph

Daily Weather History Graph

Search for Another Location

Airport or City:

Trip Planner

Search our weather history database for the weather conditions in past years. The results will help you decide how hot, cold, wet, or windy it might be!

Date:

Astronomy

Sep. 02, 2011 Rise Set
Actual Time 7:28 AM CDT 8:15 PM CDT
Civil Twilight 7:03 AM CDT 8:40 PM CDT
Nautical Twilight 6:34 AM CDT 9:09 PM CDT
Astronomical Twilight 6:04 AM CDT 9:39 PM CDT
Moon 12:37 PM CDT (9/2) 11:19 PM CDT (9/2)
Length of Visible Light 13h 36m
Length of Day
12h 46m
Waxing Crescent, 28% of the Moon is Illuminated
Sep 2
Waxing Crescent
Sep 4
First Quarter
Sep 12
Full
Sep 20
Last Quarter
Sep 27
New

Hourly Weather History & Observations

Time (CDT) Temp. Heat Index Dew Point Humidity Pressure Visibility Wind Dir Wind Speed Gust Speed Precip Events Conditions
12:53 AM 79.0 °F - 48.0 °F 34% 29.83 in 10.0 mi ESE 8.1 mph - N/A   Clear
1:53 AM 78.8 °F - 46.4 °F 32% 29.98 in 10.0 mi ESE 6.9 mph - N/A   Clear
2:53 AM 75.0 °F - 46.9 °F 37% 29.83 in 10.0 mi East 5.8 mph - N/A   Clear
3:53 AM 73.0 °F - 46.9 °F 39% 29.83 in 10.0 mi East 4.6 mph - N/A   Clear
4:53 AM 71.6 °F - 48.2 °F 43% 29.97 in 10.0 mi East 5.8 mph - N/A   Clear
5:53 AM 72.0 °F - 48.9 °F 44% 29.83 in 10.0 mi East 6.9 mph - N/A   Clear
6:53 AM 73.0 °F - 52.0 °F 48% 29.83 in 10.0 mi East 5.8 mph - N/A   Clear
7:53 AM 71.1 °F - 54.0 °F 55% 29.84 in 10.0 mi East 5.8 mph - N/A   Partly Cloudy
8:53 AM 78.1 °F - 60.1 °F 54% 29.84 in 10.0 mi ESE 11.5 mph - N/A   Clear
9:53 AM 82.0 °F 83.0 °F 62.1 °F 51% 29.84 in 10.0 mi SSE 12.7 mph - N/A   Clear
10:53 AM 86.0 °F 86.3 °F 62.1 °F 44% 29.84 in 10.0 mi SSE 13.8 mph 18.4 mph N/A   Clear
11:53 AM 89.1 °F 89.0 °F 61.0 °F 39% 29.84 in 10.0 mi SSE 13.8 mph 17.3 mph N/A   Clear
12:53 PM 91.0 °F 90.2 °F 59.0 °F 34% 29.81 in 10.0 mi SE 10.4 mph 17.3 mph N/A   Partly Cloudy
1:53 PM 93.2 °F 91.3 °F 55.4 °F 28% 29.94 in 10.0 mi South 10.4 mph - N/A   Mostly Cloudy
2:53 PM 95.0 °F 93.0 °F 55.4 °F 26% 29.91 in 10.0 mi East 8.1 mph 19.6 mph N/A   Mostly Cloudy
3:53 PM 96.1 °F 93.5 °F 53.1 °F 23% 29.73 in 10.0 mi SE 4.6 mph - N/A   Clear
4:53 PM 97.0 °F - 52.0 °F 22% 29.70 in 10.0 mi Variable 4.6 mph - N/A   Partly Cloudy
5:53 PM 98.1 °F - 52.0 °F 21% 29.70 in 10.0 mi SSE 10.4 mph 18.4 mph N/A   Mostly Cloudy
6:53 PM 97.0 °F - 52.0 °F 22% 29.69 in 10.0 mi East 10.4 mph - N/A   Partly Cloudy
7:53 PM 93.9 °F 91.7 °F 54.0 °F 26% 29.69 in 10.0 mi SE 13.8 mph 18.4 mph N/A   Clear
8:53 PM 91.4 °F 89.1 °F 53.6 °F 28% 29.85 in 10.0 mi ESE 6.9 mph - N/A   Clear
9:53 PM 87.8 °F - 51.8 °F 29% 29.87 in 10.0 mi SE 9.2 mph - N/A   Clear
10:53 PM 84.9 °F 83.3 °F 54.0 °F 34% 29.74 in 10.0 mi SE 8.1 mph - N/A   Clear
11:53 PM 82.4 °F 81.4 °F 53.6 °F 37% 29.90 in 10.0 mi SE 6.9 mph - N/A   Clear